This is the latest recevied weather packets stored in our database for station/object K5UBE. If no packets are shown the sender has not sent any weather packets the latest 10 day(s).
| Time | Temp. | Humidity | Pressure | Rain* | Wind** | Luminosity | Snow |
|---|---|---|---|---|---|---|---|
| 1778103638 | 22.78° C | 20% | 1014.8 hPa | 0 mm | - | - | - |
| 1778103336 | 23.33° C | 20% | 1014.8 hPa | 0 mm | - | - | - |
| 1778103033 | 23.33° C | 19% | 1014.8 hPa | 0 mm | - | - | - |
| 1778102730 | 22.78° C | 20% | 1015 hPa | 0 mm | - | - | - |
| 1778102425 | 22.78° C | 20% | 1014.9 hPa | 0 mm | - | - | - |
| 1778102121 | 24.44° C | 20% | 1015 hPa | 0 mm | - | - | - |
| 1778101818 | 23.33° C | 20% | 1015 hPa | 0 mm | - | - | - |
| 1778101515 | 23.33° C | 20% | 1015.2 hPa | 0 mm | - | - | - |
| 1778101212 | 23.33° C | 20% | 1015.3 hPa | 0 mm | - | - | - |
| 1778100908 | 23.33° C | 20% | 1015.3 hPa | 0 mm | - | - | - |
| 1778100603 | 24.44° C | 19% | 1015.4 hPa | 0 mm | - | - | - |
| 1778100302 | 24.44° C | 20% | 1015.4 hPa | 0 mm | - | - | - |
| 1778099999 | 23.33° C | 20% | 1015.3 hPa | 0 mm | - | - | - |
| 1778099696 | 23.33° C | 21% | 1015 hPa | 0 mm | - | - | - |
| 1778099393 | 22.78° C | 21% | 1015.5 hPa | 0 mm | - | - | - |
| 1778099090 | 22.22° C | 21% | 1015.4 hPa | 0 mm | - | - | - |
| 1778098786 | 22.78° C | 21% | 1015.4 hPa | 0 mm | - | - | - |
| 1778098484 | 22.78° C | 21% | 1015.5 hPa | 0 mm | - | - | - |
| 1778098180 | 23.33° C | 20% | 1015.7 hPa | 0 mm | - | - | - |
| 1778097877 | 23.89° C | 19% | 1015.4 hPa | 0 mm | - | - | - |
| 1778097573 | 23.89° C | 20% | 1015.7 hPa | 0 mm | - | - | - |
| 1778097270 | 22.22° C | 21% | 1015.7 hPa | 0 mm | - | - | - |
| 1778096967 | 24.44° C | 19% | 1015.6 hPa | 0 mm | - | - | - |
| 1778096664 | 22.22° C | 20% | 1015.6 hPa | 0 mm | - | - | - |
| 1778096361 | 21.67° C | 25% | 1015.7 hPa | 0 mm | - | - | - |
* Rain latest hour (hover to see other rain measurements)
** Current wind speed in m/s (hover to see current wind gust speed)